Home   Weather   Philipsburg   Past weeks
Flag for Sint Maarten

Past Weather in Philipsburg, Sint Maarten — Yesterday and Last 2 Weeks

Now
82 °F

Sprinkles. Scattered clouds.


Feels Like: 91 °F
Forecast: 89 / 82 °F
Wind: 7 mph from East

Location: Juliana Airport - Saint Maarten

Current Time: Oct 18, 2019 at 7:43:02 am

Latest Report: Oct 18, 2019 at 7:00 am


Visibility: N/A

Pressure: 29.95 "Hg

Humidity: 84%

Dew Point: 77 °F

Location of PhilipsburgLocation

Past Weather in Philipsburg — Graph

°F

Philipsburg Temperature Yesterday

Maximum temperature yesterday: 90 °F (at 12:00 pm)
Minimum temperature yesterday: 81 °F (at 12:00 am)
Average temperature yesterday: 84 °F

High & Low Weather Summary for the Past Weeks

 TemperatureHumidityPressure
High91 °F (Oct 4, 11:00 am)94% (Oct 14, 9:22 pm)30.04 "Hg (Oct 14, 9:22 pm)
Low75 °F (Oct 14, 9:22 pm)52% (Oct 10, 2:00 pm)29.86 "Hg (Oct 10, 2:00 pm)
Average85 °F72%29.95 "Hg
* Reported Oct 3 6:00 am — Oct 18 6:00 am, Philipsburg. Weather by CustomWeather, © 2019

Note: Actual official high and low records may vary slightly from our data, if they occured in-between our weather recording intervals... More about our weather records

Advertising

Philipsburg Weather History for the Previous 24 Hours

Scroll right to see more
 ConditionsComfort  
Time TempWeatherWind HumidityBarometerVisibility
6:00 am
Fri, Oct 18
81 °FPassing clouds.7 mph84%29.92 "HgN/A
5:00 am81 °FPassing clouds.7 mph84%29.92 "HgN/A
4:00 am81 °FPassing clouds.7 mph89%29.92 "HgN/A
3:00 am81 °FPassing clouds.7 mph89%29.92 "HgN/A
2:00 am81 °FPassing clouds.7 mph89%29.92 "HgN/A
1:00 am79 °FRain showers. Passing clouds.18 mph89%29.95 "Hg2 mi
12:00 am82 °FPassing clouds.10 mph84%29.95 "HgN/A
11:00 pm
Thu, Oct 17
82 °FPassing clouds.12 mph84%29.98 "HgN/A
10:00 pm82 °FSprinkles. Passing clouds.9 mph84%29.98 "HgN/A
9:00 pm81 °FSprinkles. Passing clouds.12 mph84%29.95 "HgN/A
8:00 pm84 °FPassing clouds.8 mph74%29.95 "HgN/A
7:00 pm84 °FPassing clouds.9 mph74%29.95 "HgN/A
6:00 pm84 °FPassing clouds.9 mph70%29.95 "HgN/A
5:00 pm86 °FScattered clouds.10 mph66%29.92 "HgN/A
4:00 pm88 °FPassing clouds.6 mph62%29.92 "HgN/A
3:00 pm90 °FPassing clouds.7 mph59%29.92 "HgN/A
2:00 pm90 °FPassing clouds.9 mph55%29.95 "HgN/A
1:00 pm90 °FPassing clouds.7 mph55%29.95 "HgN/A
12:00 pm90 °FHot.8 mph59%29.98 "HgN/A
10:00 am88 °FPassing clouds.8 mph59%30.01 "HgN/A
9:00 am86 °FPassing clouds.7 mph66%30.01 "HgN/A
8:00 am86 °FPassing clouds.5 mph66%29.98 "HgN/A
7:00 am82 °FPassing clouds.3 mph74%29.95 "HgN/A
Weather by CustomWeather, © 2019

See weather overview